Wind_Speed
58 59 58 58 51 44 51 57 55 55 55 56 55 52 53 51 47 48 51 50 47 45 43 41 40 38 37 35 35 35 35 37 38 40 42 41 38 35 34 32 31 31 30 30 31 35 37 38 37 36 36 32 25 21 18 17 16 15 15 15 14 15 16 13 12 10 6 5 5 5 6 8 9 9 8 7 6 5 5 5 5 5 3 3 3 4 3 3
54 58 57 56 54 45 49 57 56 56 54 53 55 54 54 52 48 47 49 52 49 45 44 43 41 39 36 35 35 35 36 37 39 41 41 41 38 36 35 34 33 32 31 31 32 34 36 37 36 33 33 31 26 22 18 15 16 16 15 17 16 15 15 13 12 10 6 6 5 5 6 8 9 10 10 8 6 5 5 5 5 4 3 3 4 4 3 3
49 52 53 53 56 50 47 53 56 58 55 50 53 54 53 52 50 48 47 51 51 47 45 43 42 40 37 36 36 36 36 38 42 43 41 41 39 36 36 35 35 34 33 34 34 35 36 37 36 33 32 31 27 23 17 14 14 16 18 17 16 16 15 14 13 11 8 8 7 7 8 9 10 11 11 8 7 6 5 5 4 3 2 3 4 5 4 4
47 48 50 51 56 55 48 47 52 58 56 50 50 51 53 52 49 48 46 50 53 49 46 45 42 40 38 37 36 37 35 39 44 43 42 42 40 37 36 35 35 35 34 35 35 35 36 35 34 34 33 33 32 24 16 13 14 16 18 17 16 16 16 15 15 13 11 10 9 9 10 10 10 12 12 10 8 5 4 4 5 5 5 5 5 5 4 3
47 47 49 51 54 58 52 44 46 54 55 52 49 47 51 54 51 49 47 49 53 51 46 45 44 40 39 38 37 37 36 41 44 41 41 43 40 38 37 36 36 36 36 36 36 36 35 33 32 33 33 34 35 30 21 14 14 16 18 18 18 17 17 17 16 16 14 13 11 12 12 10 11 12 12 11 7 4 4 6 9 8 8 8 8 7 5 4
44 45 45 50 54 57 57 46 44 52 56 54 50 46 48 52 53 50 47 47 52 53 48 46 45 42 39 39 38 38 40 42 40 40 42 43 40 38 37 37 37 36 36 36 36 36 34 33 32 33 35 34 35 36 31 21 14 17 19 18 18 18 19 18 18 18 16 15 14 14 14 12 12 11 11 12 7 5 7 10 11 10 9 10 11 10 7 5
40 43 42 45 49 55 59 50 43 50 56 56 51 47 49 51 51 51 47 46 50 53 51 47 46 44 41 40 39 39 42 40 34 38 42 41 40 38 37 38 38 37 37 37 37 36 34 32 31 31 33 34 34 35 37 31 18 17 19 20 20 20 20 20 20 20 19 17 15 15 16 15 12 10 11 10 7 9 11 11 11 10 10 10 10 11 10 8
38 40 40 40 44 51 58 53 45 46 52 57 51 45 48 51 50 50 49 46 49 54 52 48 47 46 44 42 43 42 44 42 35 35 41 42 41 40 39 39 39 38 37 36 36 34 32 30 29 29 30 32 33 32 35 34 24 19 21 23 23 23 22 23 22 21 20 18 15 16 16 16 13 13 13 9 8 11 12 12 12 11 10 9 8 10 11 11
37 36 36 36 39 46 56 58 50 44 48 55 53 47 46 51 52 49 50 48 48 54 54 49 47 47 45 43 44 45 47 45 37 33 37 44 43 42 41 40 39 38 36 36 35 33 31 30 28 28 28 29 30 31 32 34 31 24 23 25 25 24 24 24 23 22 21 18 16 16 16 16 15 15 14 10 10 14 14 13 12 12 11 9 9 10 11 11
35 34 32 33 35 41 52 59 55 45 48 53 53 53 49 50 55 51 49 49 46 52 55 50 48 48 46 45 44 47 47 42 38 34 34 40 43 42 41 40 40 39 37 37 35 34 31 29 28 26 26 26 28 30 32 36 37 28 23 27 27 24 25 25 24 23 21 18 17 17 17 17 16 17 14 11 13 15 15 15 13 12 11 10 11 11 11 12
33 31 30 30 33 38 45 55 58 48 47 51 51 56 52 46 56 56 49 49 47 50 54 51 48 48 48 47 47 48 45 40 38 38 34 34 40 43 42 40 41 41 41 39 36 35 32 30 28 25 25 27 28 29 32 37 40 31 25 28 27 25 26 25 24 24 22 20 17 16 17 18 19 19 14 11 14 15 15 16 14 13 12 12 13 12 13 13
32 30 28 28 30 35 40 49 60 55 45 48 50 56 51 41 51 57 51 50 47 48 54 53 48 47 48 47 48 45 42 39 36 38 37 34 34 40 43 42 42 45 43 41 39 36 34 33 29 26 26 28 28 27 28 35 40 33 25 26 28 26 27 26 25 24 23 21 18 17 18 21 23 19 13 12 16 16 17 17 16 15 14 14 15 15 14 14
32 29 27 27 28 31 37 44 59 64 51 45 46 52 47 38 49 56 53 51 47 47 52 55 51 47 47 48 49 44 40 38 34 34 37 37 34 35 41 43 43 46 44 42 41 38 36 36 32 29 27 28 28 28 28 31 38 32 23 25 29 27 27 27 25 25 24 22 20 18 20 24 23 17 14 15 16 17 18 18 18 17 16 17 16 16 16 16
33 30 27 26 27 30 34 40 52 63 58 45 43 52 45 37 51 57 53 51 47 48 50 54 54 48 48 50 49 45 40 36 34 34 35 37 37 33 37 42 44 45 45 43 42 39 38 37 35 31 28 28 29 31 30 28 33 31 23 26 29 28 28 28 25 25 25 23 21 20 23 26 21 16 16 17 17 18 19 19 19 19 18 19 18 18 18 17
34 31 28 26 26 29 31 38 46 55 60 50 43 53 46 34 48 56 52 51 47 47 50 52 54 50 49 50 48 46 42 37 35 36 34 33 34 33 35 40 43 44 44 43 42 39 38 37 36 33 30 30 29 31 33 30 31 30 24 25 28 30 30 27 25 26 26 24 22 21 24 26 21 17 18 19 18 19 19 20 20 21 20 20 20 19 19 19
35 31 30 27 26 29 31 35 43 52 59 54 45 52 49 33 41 54 52 50 48 47 51 54 55 53 49 49 48 46 44 41 38 38 35 31 30 30 31 34 38 40 40 41 40 38 37 35 34 33 31 30 30 30 30 30 32 31 26 25 24 26 29 27 25 27 27 25 24 24 24 24 20 18 20 20 20 20 20 21 22 22 23 22 22 22 21 21
36 33 31 28 27 28 32 35 40 48 54 55 46 47 50 34 35 51 50 48 50 49 52 55 57 53 45 45 48 47 46 43 40 40 40 35 30 27 28 31 33 34 36 37 37 36 35 34 33 32 31 30 32 32 28 28 36 38 30 26 23 21 24 26 25 26 28 27 25 25 27 26 20 17 19 20 19 20 20 21 22 23 24 24 24 24 24 24
38 36 32 29 28 28 32 35 38 44 50 57 50 44 51 39 32 48 51 48 50 49 51 53 54 50 43 46 50 49 47 44 41 41 42 40 33 28 26 28 31 32 33 33 33 33 32 32 31 30 32 32 35 38 36 32 36 41 31 22 22 22 23 25 24 24 27 29 26 26 29 28 22 18 19 19 19 20 21 21 22 23 23 24 26 26 25 26
39 37 34 31 29 29 32 34 37 41 45 57 56 44 48 40 33 46 53 52 53 53 56 57 57 56 52 54 53 49 46 43 43 42 42 43 39 32 28 27 28 30 32 33 32 33 32 31 31 32 34 34 36 40 43 35 30 33 28 17 20 23 24 24 24 25 25 26 28 28 29 28 25 22 19 19 19 20 21 21 23 24 25 25 26 26 26 26
40 38 35 33 30 30 33 34 36 38 41 52 58 49 44 39 40 51 57 58 58 57 59 60 62 63 60 58 54 49 47 43 43 44 43 43 41 38 34 30 29 29 31 32 32 30 30 31 34 36 33 32 34 37 41 37 28 28 25 17 18 22 25 24 21 25 26 25 27 27 29 29 27 26 23 22 21 21 21 21 22 24 25 26 26 25 25 24
39 40 37 35 33 31 33 36 36 37 41 50 57 53 44 39 43 53 59 61 61 59 58 56 60 63 60 57 55 51 51 48 43 44 43 42 41 41 39 37 35 33 32 31 29 27 28 32 34 33 30 30 33 36 38 35 29 29 25 16 17 21 25 23 18 22 26 27 27 26 29 32 30 27 26 27 26 23 21 21 22 24 25 26 26 25 24 22
38 41 40 37 35 34 34 38 38 37 42 48 55 56 48 41 42 50 56 60 63 63 60 56 57 62 58 52 51 50 51 51 46 44 44 43 42 42 42 41 39 38 36 32 30 28 30 33 31 29 29 29 31 35 36 33 29 31 29 20 18 19 20 22 21 20 23 26 27 27 30 33 33 31 28 29 29 26 23 23 21 21 24 25 25 24 23 22
37 41 41 39 38 37 37 39 41 40 43 47 53 58 51 41 42 52 55 56 64 64 59 60 57 59 60 50 46 48 49 51 51 48 46 44 43 41 40 41 40 39 37 36 34 32 31 31 29 29 29 28 30 34 35 34 31 33 34 27 21 19 16 18 20 19 21 24 26 28 31 34 34 35 34 31 30 29 27 26 25 22 23 24 24 23 23 23
36 40 43 42 40 39 39 40 44 45 46 48 51 57 52 39 40 53 54 52 64 63 54 59 58 56 60 53 47 48 47 49 51 51 48 45 44 41 39 38 37 37 36 35 34 32 31 28 27 29 29 29 31 34 37 37 34 35 38 34 24 18 15 13 14 16 21 23 26 27 29 36 38 36 37 34 31 33 31 29 28 25 25 25 25 25 25 25
36 40 44 44 43 42 40 42 48 46 46 50 50 51 50 43 40 48 50 48 58 60 50 55 59 57 58 56 50 47 46 48 49 49 48 47 45 42 39 36 35 35 34 32 29 30 33 30 28 30 30 31 33 35 37 39 37 36 39 39 29 18 14 12 10 14 20 22 26 25 20 28 39 37 36 35 34 34 33 32 32 28 28 28 26 26 25 25
36 40 45 46 45 44 43 45 47 45 48 52 49 44 46 48 44 44 48 40 42 54 54 54 57 57 57 55 51 47 44 46 47 47 46 46 44 42 40 37 35 33 32 30 27 28 33 32 31 32 29 29 33 36 36 37 37 36 36 35 28 19 15 13 11 12 17 19 22 24 19 21 33 37 35 35 36 36 35 34 34 32 30 30 28 26 25 24
38 40 45 47 46 46 46 46 46 49 53 51 48 45 46 50 47 46 44 24 23 48 58 55 54 53 55 54 51 48 44 45 47 46 46 45 43 41 39 38 37 34 32 30 27 28 32 33 33 34 29 27 31 34 34 36 37 34 31 28 22 16 14 13 14 14 16 19 19 24 26 23 34 42 36 34 35 36 37 36 35 33 31 30 29 27 26 25
38 41 45 48 47 47 47 46 48 53 53 50 48 45 47 48 45 51 41 8 11 44 55 54 53 51 52 52 49 47 44 45 48 45 43 43 43 42 39 36 35 34 32 32 31 30 31 32 33 34 33 32 33 31 29 34 39 34 27 25 20 12 11 12 13 16 18 20 21 28 27 18 28 44 39 36 38 36 35 34 33 32 31 30 30 28 28 26
38 42 46 47 48 49 49 48 51 54 54 52 47 43 47 48 46 52 36 6 14 42 50 52 53 50 50 50 47 44 42 43 46 46 42 41 41 41 39 34 30 29 29 31 33 31 28 28 28 31 35 37 35 31 27 31 39 38 27 24 19 12 11 12 13 18 17 17 24 32 30 17 20 39 41 38 42 41 36 33 31 31 30 29 29 29 28 28
38 43 47 48 50 51 52 51 52 55 56 54 48 43 47 50 49 38 17 9 23 38 45 51 53 52 50 48 46 44 41 39 42 45 42 39 39 36 35 31 24 23 26 28 31 30 26 24 25 27 32 34 33 30 27 30 36 36 29 23 19 15 14 12 14 17 12 14 27 33 33 22 17 32 42 41 43 42 36 33 31 31 30 29 29 28 28 27
39 44 47 51 52 52 55 53 53 56 56 55 50 44 46 54 53 27 4 17 31 34 43 50 52 54 52 51 50 46 43 38 40 46 44 40 39 37 35 31 26 22 24 28 29 28 26 26 26 28 29 28 28 28 26 31 37 35 29 22 15 13 13 11 12 12 7 10 22 28 31 26 19 26 33 33 36 38 36 34 32 30 29 28 27 28 28 28
40 45 49 54 54 54 56 53 53 56 56 55 50 48 50 49 37 19 11 22 29 33 46 51 54 57 54 54 54 50 46 42 41 45 47 44 42 43 42 40 38 31 25 29 28 24 24 26 27 26 27 25 25 26 25 31 38 37 29 21 13 7 7 7 5 6 9 9 11 16 19 24 30 34 32 27 27 30 31 31 31 31 29 27 26 27 28 28
42 46 51 56 56 57 58 53 53 58 58 56 50 51 54 34 14 19 27 25 27 39 50 52 56 60 58 56 53 50 45 44 45 44 46 46 43 43 41 39 42 37 32 34 29 21 16 19 27 29 28 28 28 29 30 35 40 41 35 26 17 7 3 6 4 1 9 11 9 9 9 18 32 35 36 37 33 31 31 30 29 31 30 28 27 27 27 28
44 49 53 58 59 60 59 55 56 59 59 57 51 52 47 20 10 30 37 29 33 45 51 53 57 55 54 53 51 50 45 41 46 45 44 46 43 42 41 38 40 38 37 36 32 29 20 14 27 34 31 30 31 31 31 34 39 44 40 29 22 15 6 6 6 3 6 6 6 9 7 11 17 16 24 34 36 36 37 32 28 28 29 28 28 28 27 27
47 52 56 60 63 62 59 57 57 58 60 57 53 52 42 17 16 36 40 36 42 47 47 52 57 52 47 48 47 49 48 44 45 46 45 47 47 46 46 44 42 41 39 34 31 34 29 17 20 29 32 29 27 30 30 29 35 42 37 27 28 29 16 5 4 6 6 2 4 12 15 19 18 9 10 18 27 33 36 35 32 30 29 28 28 29 28 28
50 55 58 62 65 63 59 59 59 58 59 58 53 52 46 29 26 38 43 44 49 52 51 50 52 49 41 42 45 45 46 46 47 46 43 45 46 47 47 45 45 44 41 36 31 30 27 19 13 17 27 29 22 24 31 28 29 36 38 35 37 34 21 10 9 8 6 4 7 13 21 28 27 20 16 14 17 21 25 32 36 35 32 30 28 27 27 28
53 57 60 65 67 63 60 61 60 57 58 60 54 50 53 46 34 36 44 49 51 57 59 51 48 49 44 42 46 46 45 47 49 47 44 43 43 46 47 44 43 44 43 40 35 31 27 20 15 13 19 28 22 17 27 31 28 32 40 43 36 23 19 17 10 5 3 4 7 13 20 25 22 18 18 18 18 17 17 20 24 28 30 31 29 27 26 27
55 58 63 68 68 63 62 62 61 58 58 60 50 42 52 56 43 37 45 50 51 58 60 51 46 51 53 52 52 53 52 52 52 50 47 45 42 46 50 46 44 44 44 41 36 34 30 18 13 15 15 21 23 18 26 35 34 33 38 41 31 17 20 25 13 4 4 3 4 8 14 21 24 21 14 12 16 19 20 19 20 22 23 25 26 26 28 28
55 58 64 70 68 64 64 62 60 58 58 62 52 36 40 52 48 41 45 49 53 58 58 53 48 49 53 56 57 59 57 57 60 55 50 50 45 46 53 49 46 46 46 46 38 33 31 18 10 16 18 18 23 26 33 39 39 35 30 32 33 25 22 27 22 12 6 4 4 4 5 12 24 27 20 15 13 13 16 19 20 22 22 21 22 25 29 30
56 58 63 70 69 66 62 59 60 59 57 62 62 43 33 44 47 43 46 50 53 57 57 56 55 52 53 54 53 57 55 54 62 58 50 51 45 43 51 51 48 49 47 44 39 32 30 23 16 19 22 23 25 31 38 41 43 43 35 29 33 33 25 21 24 25 17 7 3 3 5 9 16 20 21 20 17 16 19 19 19 21 24 24 23 24 27 29
58 59 62 69 71 66 60 59 60 62 58 59 65 58 43 42 45 43 46 49 50 53 55 56 56 54 55 55 53 57 53 49 57 55 46 50 47 41 50 54 50 49 46 42 39 34 30 27 24 27 30 31 29 30 34 37 42 46 44 36 32 34 29 16 14 26 28 18 7 3 4 8 9 9 13 17 15 17 21 21 21 21 22 25 25 25 26 27
59 59 62 69 71 65 61 62 61 62 61 56 59 64 56 45 44 45 47 48 49 51 52 52 54 52 54 58 58 59 56 53 58 57 50 53 55 46 45 53 51 46 46 45 41 36 30 25 24 27 31 31 26 25 28 33 38 39 40 40 33 29 33 24 13 17 22 19 15 9 7 13 15 6 5 9 11 14 16 19 21 21 22 23 24 25 27 27
62 60 60 67 71 65 61 64 63 61 64 58 51 55 54 47 47 48 48 49 51 52 50 50 52 52 53 56 57 58 56 52 55 59 53 51 53 45 38 46 50 44 43 45 41 36 29 24 23 23 24 26 24 24 26 29 34 37 41 44 38 32 33 31 24 19 16 18 18 9 9 22 27 19 12 10 9 11 11 14 17 20 23 25 23 24 25 26
62 60 59 63 67 66 64 66 64 60 65 66 52 44 44 43 46 50 50 50 52 52 51 52 54 54 53 54 58 61 56 47 49 57 53 48 51 46 37 40 47 46 44 43 43 40 29 24 27 21 12 13 16 17 23 31 37 40 41 43 43 39 33 31 31 24 19 26 27 16 14 21 22 22 23 19 15 15 18 23 24 22 22 23 24 24 24 24
62 58 57 59 61 64 66 67 65 60 64 67 59 49 44 39 41 47 51 50 50 52 52 52 53 52 52 53 53 57 56 47 47 55 52 46 49 47 40 40 44 47 45 41 41 40 30 28 32 26 15 12 14 18 28 40 43 40 39 39 40 40 36 33 31 23 22 30 31 27 26 22 14 15 18 18 19 20 21 25 27 24 22 22 22 22 22 21
65 56 55 58 59 62 65 65 65 64 64 62 56 53 51 44 40 42 48 51 50 51 50 50 51 49 49 51 50 51 55 48 43 52 54 47 47 48 46 42 42 46 45 40 38 36 30 29 33 34 31 26 28 32 35 38 42 44 44 43 41 40 40 36 29 27 30 28 26 34 35 24 18 18 14 12 15 17 19 23 25 23 21 19 18 18 17 17
66 60 61 64 61 62 67 66 64 65 65 61 54 53 55 51 45 43 46 50 48 48 48 45 48 50 50 53 53 53 57 51 42 48 55 52 47 46 45 41 39 44 47 40 36 35 32 31 34 38 38 32 30 33 31 30 37 46 48 47 45 42 42 39 37 41 38 25 26 40 39 31 31 27 19 16 16 16 19 20 19 18 17 16 16 15 14 15
64 62 66 68 64 64 69 69 65 62 63 61 53 54 57 54 49 47 47 49 46 46 46 42 45 51 51 53 56 55 56 52 44 45 51 53 49 45 44 40 35 41 46 41 37 37 35 36 38 39 39 35 28 27 28 26 29 37 43 46 47 45 42 43 48 51 44 35 38 40 35 38 39 29 22 20 18 19 20 17 16 17 17 17 17 16 14 13
64 62 65 68 66 66 70 70 67 62 60 58 50 50 56 55 51 49 48 50 48 47 48 47 48 51 50 51 54 56 57 54 50 50 53 55 55 51 48 45 39 40 44 45 43 41 39 39 40 38 39 38 32 26 25 22 19 25 34 41 46 48 47 47 52 51 45 45 47 39 34 42 41 28 24 24 23 27 29 25 24 23 22 23 23 21 19 17
68 65 66 68 65 67 70 70 70 64 58 56 50 47 52 55 53 50 48 50 52 51 52 53 52 52 51 51 53 55 56 55 56 59 60 58 59 58 54 53 51 47 46 48 49 47 44 39 37 38 36 34 35 31 25 22 19 18 22 28 36 46 52 55 55 50 45 49 51 43 43 50 44 35 32 30 30 35 35 33 32 30 29 28 27 26 25 22
70 68 67 69 65 65 69 69 68 65 59 57 54 49 50 54 54 52 49 49 51 53 54 54 52 50 49 50 52 52 51 51 53 56 57 55 55 58 56 52 51 49 48 48 48 49 47 36 29 34 32 28 32 31 24 23 22 20 25 29 33 39 46 52 54 52 52 55 50 44 50 54 45 38 36 34 34 36 36 35 34 32 33 32 29 28 27 23
69 66 65 69 67 64 68 67 63 63 62 61 58 53 52 53 53 52 51 49 49 52 53 52 49 48 49 50 51 51 48 48 50 51 50 48 47 52 50 44 42 45 47 48 48 47 48 39 27 26 27 24 24 26 26 22 16 20 34 39 38 37 36 38 44 49 53 55 52 53 60 56 44 38 38 36 35 34 34 33 32 32 32 31 31 30 29 27
Wind_Direction
232 231 228 225 221 214 207 207 208 207 206 207 209 210 209 211 215 214 211 209 210 208 207 210 213 214 212 212 213 215 217 218 220 218 213 209 203 202 204 202 204 210 216 219 217 216 212 208 204 199 203 203 198 206 212 213 218 222 226 229 229 225 224 216 206 217 238 239 235 261 286 278 270 268 261 250 240 234 223 207 197 207 217 197 178 177 166 137
232 231 230 226 221 216 208 205 206 207 209 208 208 210 208 209 213 214 212 209 208 207 206 208 211 213 212 212 213 214 217 219 220 219 213 208 204 201 203 203 205 209 214 218 218 217 215 212 208 202 206 205 199 205 208 211 219 222 228 231 230 228 223 214 209 218 232 232 238 260 275 275 272 268 259 253 251 249 233 221 210 199 205 191 168 172 157 136
232 232 232 229 224 218 207 203 206 207 209 208 208 211 208 207 211 213 213 210 207 206 207 208 210 211 210 211 213 214 216 218 220 219 214 209 205 203 204 204 205 210 214 219 221 220 220 217 210 203 205 204 199 202 205 211 221 223 228 230 231 230 222 214 213 221 231 233 247 258 260 266 267 260 249 243 241 234 220 221 217 189 199 206 177 168 150 138
230 231 232 231 226 221 211 204 207 207 206 205 206 211 211 208 210 211 212 212 207 205 206 207 209 210 209 210 212 214 215 218 220 218 214 210 206 204 206 206 205 210 215 219 223 222 223 224 215 205 206 210 206 201 204 216 225 227 227 227 230 232 223 216 217 223 229 232 245 256 252 255 258 256 246 234 226 208 195 206 203 194 191 184 182 176 153 144
231 231 232 233 228 221 217 209 206 208 206 203 201 206 212 210 207 209 212 212 208 205 206 206 208 209 209 210 212 214 212 214 219 216 213 211 206 204 206 208 207 209 213 217 222 224 223 225 223 214 211 218 217 210 210 222 236 232 226 226 228 231 223 217 221 224 227 231 243 254 250 252 254 252 246 235 218 163 174 195 197 203 193 174 173 179 164 149
232 231 230 233 231 222 220 214 205 206 206 204 203 204 209 212 208 206 209 212 208 205 206 205 205 208 208 210 213 214 211 212 216 212 211 211 206 206 207 211 211 210 212 214 219 224 224 224 225 222 218 220 223 220 217 219 242 241 226 225 229 232 224 219 223 225 226 230 242 255 249 247 249 246 246 239 212 176 196 196 197 203 197 187 177 171 164 156
232 232 229 231 234 225 219 216 206 202 205 206 207 204 204 210 209 206 206 210 208 204 206 204 203 206 207 209 212 214 214 215 214 210 211 211 209 211 212 214 214 212 213 214 217 221 225 225 225 226 224 222 224 227 224 220 234 248 230 223 227 230 226 223 224 223 225 230 243 251 241 237 243 246 246 237 213 206 209 202 203 203 200 201 186 170 164 164
231 232 231 230 234 229 219 218 212 201 202 207 207 203 205 209 209 206 206 208 207 204 205 204 202 204 206 208 210 212 214 213 212 209 209 210 210 212 214 215 215 213 213 214 217 219 222 225 227 229 227 226 224 227 229 223 226 245 236 224 224 224 226 225 223 223 225 230 242 242 234 232 236 245 241 228 225 222 216 212 209 208 206 203 192 183 176 172
230 232 230 229 232 230 221 218 218 204 199 206 205 199 205 212 210 206 205 207 206 203 204 205 203 203 205 209 213 215 214 211 210 208 208 210 210 211 214 217 217 215 214 214 215 216 220 224 229 231 229 230 227 226 231 226 222 236 239 230 226 223 226 227 222 224 225 228 238 235 232 231 231 240 235 221 229 225 219 221 215 212 211 205 201 195 187 180
228 230 229 228 228 229 223 219 220 209 195 201 204 198 203 211 210 208 207 206 205 203 203 206 204 202 204 207 213 217 215 211 210 208 208 211 211 212 214 218 220 218 215 215 216 217 221 226 228 230 232 234 232 228 230 227 222 227 235 230 228 225 226 228 225 224 224 226 232 233 232 229 230 236 229 216 223 222 220 223 220 218 214 209 209 204 198 190
225 225 225 227 225 226 224 220 220 210 191 194 201 201 205 209 207 208 208 206 205 203 203 206 205 204 204 207 213 216 213 211 212 210 208 208 211 214 215 218 220 220 218 217 218 219 221 223 223 226 232 233 232 230 229 226 221 224 233 231 227 228 227 226 227 225 223 227 229 232 233 229 229 230 221 217 223 221 223 226 223 222 220 216 213 209 206 199
223 220 220 224 224 224 223 220 218 213 196 192 202 203 203 209 207 205 206 205 204 203 203 206 207 205 204 207 214 216 213 213 213 212 212 209 210 215 215 216 220 221 221 221 222 223 222 222 223 229 233 231 230 228 229 225 218 223 237 235 227 229 230 225 227 226 222 227 230 231 236 232 227 224 219 222 225 223 225 227 225 223 222 222 219 214 210 207
221 217 217 219 222 223 221 220 219 219 210 195 201 202 198 210 209 202 203 204 204 203 201 205 208 207 205 208 212 214 215 214 211 213 215 213 212 214 213 214 218 220 220 220 222 222 223 224 226 233 235 233 230 226 230 226 217 221 238 238 230 232 233 226 225 226 221 226 231 231 237 232 225 222 224 227 226 226 227 228 228 225 223 224 223 221 216 214
218 215 214 215 219 222 220 220 220 222 219 203 196 198 196 207 207 202 203 203 203 202 200 203 208 208 207 208 209 211 214 212 210 210 210 212 214 214 212 211 215 218 219 219 221 222 224 225 228 235 236 234 232 229 233 232 218 220 237 240 236 238 235 226 225 227 223 226 230 233 238 234 225 224 231 231 228 228 228 229 231 229 227 226 225 225 223 221
214 213 213 213 217 221 219 218 219 221 220 212 201 199 200 200 201 201 201 201 202 201 199 202 207 209 209 208 206 207 210 209 208 206 203 208 214 214 211 210 213 217 219 219 221 223 225 226 228 235 237 233 233 230 232 235 223 220 236 241 238 241 236 226 226 227 224 227 230 232 239 236 224 223 231 232 231 229 229 230 231 232 231 230 229 228 227 226
211 210 211 212 214 218 217 213 216 219 219 217 212 205 203 200 199 199 198 199 201 199 198 200 204 209 210 208 204 204 206 205 204 202 200 202 206 208 207 206 210 215 217 218 221 222 224 226 230 234 235 231 229 226 229 236 227 219 232 240 236 241 239 232 229 226 223 227 231 230 235 237 226 222 228 230 231 230 231 231 232 233 232 232 233 232 231 230
209 207 208 210 212 215 215 210 212 217 218 216 211 203 202 201 199 199 198 200 199 197 199 201 203 206 210 209 204 202 203 202 201 201 200 198 195 194 197 201 203 207 211 215 218 220 221 224 229 230 231 229 224 220 222 229 224 215 221 235 234 236 237 235 231 225 224 227 232 232 234 235 228 223 228 231 234 233 233 235 235 235 235 234 234 233 232 232
207 205 204 205 209 213 213 209 209 214 217 214 209 201 199 201 202 199 198 200 198 196 198 201 201 200 205 209 206 203 202 201 201 201 200 198 193 186 187 196 201 203 206 211 215 218 220 223 228 229 228 226 220 217 217 222 222 213 212 228 233 232 233 234 231 226 226 229 232 235 235 233 226 226 231 234 237 237 237 238 239 238 237 236 235 233 232 232
207 204 202 201 204 211 212 209 208 209 213 215 214 205 197 203 210 198 195 197 194 191 195 197 198 199 205 208 206 204 201 200 200 200 201 200 196 189 186 188 197 203 206 210 213 216 220 221 222 224 224 224 221 219 220 226 228 213 208 223 228 228 232 231 230 226 227 232 234 235 237 233 224 223 231 238 241 240 240 241 243 242 239 237 235 234 232 232
208 203 201 200 200 207 211 209 207 205 206 212 216 208 196 205 206 193 193 197 195 193 196 199 199 202 208 209 205 201 197 198 199 200 201 202 200 197 193 191 192 198 204 208 211 214 219 222 223 223 224 226 224 222 224 230 234 217 207 218 222 224 229 228 230 229 228 236 237 236 240 237 227 223 229 238 242 241 240 242 243 244 242 238 236 235 233 233
208 202 200 199 198 203 209 208 205 203 203 209 215 209 200 206 204 193 189 190 194 197 198 201 201 202 208 209 206 200 194 193 196 200 200 201 203 202 201 201 199 200 203 205 206 209 216 223 227 227 229 230 224 223 226 229 235 223 211 218 223 223 228 224 226 231 231 238 240 239 243 241 233 227 230 238 242 241 241 244 247 247 243 240 238 236 235 235
208 203 199 198 198 201 207 207 203 201 202 208 217 213 202 202 206 199 191 185 188 195 197 199 200 201 206 209 207 203 196 192 192 197 198 197 201 204 204 204 205 206 206 204 204 209 217 223 226 228 230 231 227 228 229 229 234 226 216 224 230 224 229 226 224 231 234 240 243 243 247 246 239 237 238 240 242 243 241 244 249 248 241 239 239 237 237 236
209 203 198 198 198 200 206 205 203 201 200 206 216 215 202 195 200 201 198 191 188 191 194 196 198 200 203 204 205 204 202 198 194 195 196 196 198 200 202 203 204 206 206 205 205 210 219 223 226 229 229 229 229 230 231 231 235 230 220 225 232 223 227 228 226 235 241 244 246 247 252 250 243 242 243 241 243 244 242 242 243 242 236 234 236 235 234 234
210 204 199 199 198 201 204 204 203 202 199 204 213 215 205 195 194 197 199 196 190 190 192 194 197 201 202 202 202 202 203 204 202 197 194 196 197 198 201 202 203 204 206 208 208 215 226 228 228 233 232 230 229 230 230 228 231 232 223 222 226 219 224 234 231 241 248 251 250 250 258 254 245 243 243 241 241 243 242 242 240 238 236 234 235 234 232 231
209 205 201 200 201 201 201 204 204 201 199 203 210 213 211 206 199 196 199 195 188 190 191 191 195 200 202 203 201 200 202 203 206 203 198 197 198 198 199 200 205 207 207 208 211 222 231 233 231 234 234 231 230 231 231 228 227 231 226 222 221 216 224 236 238 249 253 253 250 246 255 257 249 245 243 240 240 241 241 243 241 238 238 239 239 238 235 233
209 206 202 202 204 201 201 204 202 200 201 203 205 208 213 215 210 203 200 193 186 188 191 190 190 193 199 200 197 196 198 200 204 205 202 198 199 203 202 200 204 209 210 208 212 224 230 231 230 233 234 230 231 232 232 230 226 227 228 223 218 222 235 239 242 254 254 252 252 245 243 256 258 251 244 241 241 241 241 242 242 239 239 241 240 240 238 235
210 207 202 203 206 203 202 204 201 201 201 197 197 203 211 216 216 209 202 196 188 187 188 189 188 189 195 198 196 193 191 194 197 202 204 200 198 203 207 207 206 207 209 206 208 220 224 225 225 227 228 227 229 230 230 229 223 225 227 219 215 231 250 256 253 255 259 259 259 251 243 249 259 254 246 244 243 243 242 242 243 242 240 242 241 239 238 237
212 207 204 205 207 203 202 203 201 200 197 190 191 200 207 208 210 207 203 211 185 183 184 186 186 187 191 195 195 192 191 193 190 192 200 201 199 201 204 211 212 209 207 206 208 216 220 221 223 225 224 225 230 232 233 229 221 222 221 212 215 237 260 272 268 260 264 265 257 250 242 239 254 254 250 247 246 244 243 241 242 244 244 243 243 242 240 239
213 209 205 205 206 204 204 203 200 198 197 196 196 199 201 202 202 201 202 221 172 178 181 182 182 183 184 187 190 190 192 196 191 186 191 198 199 201 202 206 213 212 207 208 211 215 219 220 224 230 229 231 235 238 241 234 223 219 213 210 219 229 251 272 275 266 267 261 251 247 241 235 254 256 251 247 247 245 244 244 241 243 246 244 243 243 243 242
215 210 206 206 207 207 206 203 198 198 203 204 202 200 198 199 199 197 203 206 174 172 175 177 179 180 180 181 182 186 191 193 192 185 184 194 196 198 202 200 204 212 209 208 211 213 216 216 219 227 232 236 240 241 241 232 221 215 208 209 219 221 236 266 275 269 267 252 250 248 243 241 254 259 253 248 248 247 247 247 244 242 246 247 248 246 244 243
215 209 207 207 208 208 206 202 198 200 206 206 207 210 203 197 198 197 201 188 176 167 169 171 174 176 179 181 178 184 191 189 191 187 181 187 192 193 195 193 190 197 205 205 208 213 215 216 221 225 230 234 237 238 237 225 213 206 202 203 211 219 232 261 269 254 241 246 250 248 244 240 241 252 254 253 252 251 250 248 245 244 246 248 251 250 247 244
214 209 208 208 208 208 206 201 198 200 204 204 209 212 200 191 196 197 172 174 175 171 169 168 169 172 179 182 179 182 187 184 188 193 189 184 186 192 194 196 191 183 191 199 201 210 215 221 228 233 236 233 229 228 224 219 210 200 195 192 189 193 210 232 240 223 231 248 251 243 237 237 243 249 250 250 251 250 250 248 244 243 243 245 247 248 248 245
213 209 208 208 209 208 204 200 197 201 204 204 208 208 195 186 191 186 172 167 173 173 171 170 170 172 176 176 175 178 183 186 187 192 196 189 186 191 195 201 200 192 195 196 194 196 204 226 233 233 237 233 228 221 211 208 205 199 194 187 183 176 156 207 208 208 245 248 246 236 228 242 251 256 253 250 250 250 252 253 250 245 243 244 244 243 245 246
211 207 207 208 209 208 205 200 198 203 206 205 208 207 199 192 175 179 176 170 169 171 172 171 167 167 170 170 172 176 176 183 187 186 189 189 188 192 194 199 204 206 204 195 192 195 189 214 228 225 229 228 225 223 217 213 206 200 196 190 195 203 188 200 203 202 241 241 218 204 205 244 252 261 261 255 253 251 251 254 252 247 244 244 244 242 242 244
209 205 207 208 208 208 206 201 199 203 206 207 208 203 197 191 168 175 177 171 169 169 169 170 165 161 165 168 172 177 175 174 182 184 184 189 193 196 198 198 200 206 204 192 191 196 194 207 224 221 223 226 224 219 217 216 206 198 193 194 206 211 210 234 250 240 243 252 204 201 216 242 249 261 275 265 259 254 250 249 247 247 248 244 243 243 242 242
208 204 206 207 208 208 205 200 200 204 206 207 209 202 195 194 182 178 179 177 174 171 163 163 165 159 157 164 167 176 180 177 178 181 184 193 199 200 202 201 200 203 204 197 191 190 195 210 219 215 216 219 225 219 212 209 202 195 193 199 206 208 215 251 272 261 249 250 241 223 230 246 253 259 259 254 260 259 251 249 248 250 250 244 243 244 243 243
207 202 205 207 207 206 203 200 200 203 205 204 205 202 199 200 194 182 182 181 179 174 165 160 165 164 159 161 166 174 181 178 177 181 184 190 200 203 203 204 205 206 206 205 202 199 198 202 206 207 209 212 216 216 212 210 202 196 199 204 205 204 218 234 253 265 224 240 248 229 232 242 245 251 253 243 243 250 250 250 250 251 249 246 245 245 244 244
206 202 206 206 204 204 202 201 200 201 204 205 205 202 200 200 199 190 183 180 178 175 169 163 167 172 169 167 171 177 180 177 177 182 185 188 199 205 202 202 205 207 208 207 207 210 203 188 192 201 203 211 208 198 202 206 204 200 203 206 203 201 214 218 223 233 206 234 268 233 232 238 234 234 244 244 242 247 248 247 250 250 250 250 248 245 243 242
204 204 207 203 201 203 203 200 200 201 204 208 210 206 196 195 196 193 188 183 178 176 174 171 173 177 177 176 176 178 180 180 180 183 187 191 199 205 203 202 202 203 207 206 205 209 203 184 172 189 192 198 198 196 197 199 200 200 204 208 208 210 215 215 218 226 222 223 258 253 237 239 240 240 243 245 242 245 246 248 252 252 251 252 249 245 243 242
203 204 206 201 199 202 202 199 199 202 205 210 213 214 200 191 191 192 193 191 182 177 178 179 179 179 181 181 178 178 181 183 184 185 189 193 196 200 201 202 202 201 202 202 201 201 199 193 178 174 184 190 194 203 205 200 198 199 202 206 209 213 215 219 226 230 235 235 200 227 256 253 253 253 250 247 243 244 247 249 249 248 246 247 246 245 243 241
199 202 204 199 198 201 198 195 199 202 205 210 214 217 211 193 186 186 191 194 188 183 184 184 183 182 181 181 180 180 181 184 187 187 191 196 196 198 201 202 203 202 196 193 197 197 194 193 181 171 181 193 198 207 210 206 203 203 203 204 206 210 211 215 230 228 230 238 231 213 266 262 257 264 262 255 251 251 250 245 241 243 246 247 246 245 243 240
196 200 201 197 198 200 194 192 199 202 203 207 207 210 211 200 188 185 187 190 187 185 187 185 184 184 182 183 183 181 181 185 188 190 195 200 201 201 202 201 202 202 196 192 194 196 191 185 177 175 186 195 198 205 209 210 211 210 210 211 210 212 214 215 224 226 225 236 246 255 273 254 242 244 274 260 244 240 245 246 243 244 248 252 251 248 245 243
195 197 199 196 197 198 192 192 199 200 203 207 201 198 201 197 192 188 183 184 185 185 188 187 187 188 186 185 183 181 183 185 189 193 196 200 202 202 200 200 200 200 198 193 191 191 190 183 170 165 180 192 198 207 211 211 213 214 216 217 215 216 218 219 228 238 234 233 236 240 260 253 247 244 249 254 240 234 253 266 260 255 254 254 253 248 246 246
193 193 196 196 197 197 193 192 195 196 202 210 207 196 190 187 190 190 184 184 187 189 191 192 193 194 191 188 187 186 185 186 189 195 199 201 201 200 199 199 200 200 200 200 196 190 185 182 170 150 146 186 198 210 214 213 214 215 217 218 217 218 221 224 231 238 244 241 235 230 246 253 249 246 246 245 241 248 269 279 277 274 266 257 254 252 251 251
188 189 192 194 195 196 198 197 195 194 200 207 210 208 198 184 186 193 191 187 189 192 194 194 194 194 191 188 187 187 187 188 191 195 199 202 200 200 200 199 201 203 204 204 200 190 181 183 181 167 156 178 193 205 212 210 208 211 216 217 218 220 223 227 232 234 239 241 235 232 243 248 243 244 245 242 246 257 268 271 270 269 265 258 254 252 250 250
185 183 184 187 190 195 200 200 197 196 199 200 200 203 202 190 183 188 189 184 186 192 195 195 193 190 189 187 184 185 190 193 196 197 198 201 200 200 202 202 203 206 205 202 199 191 184 190 197 194 194 203 210 214 217 211 206 209 213 214 215 218 222 227 233 234 237 243 242 239 244 248 243 238 233 239 261 265 255 253 257 260 257 249 241 240 243 248
186 183 181 180 182 192 197 197 197 198 201 200 194 192 195 193 183 180 181 181 184 191 195 197 197 192 190 190 188 189 192 195 199 201 200 201 201 200 201 202 203 204 203 199 197 194 190 197 209 211 212 218 220 220 224 221 215 214 212 211 213 216 218 223 228 232 235 242 248 245 246 251 250 245 244 253 262 253 243 243 247 245 238 231 235 247 261 267
183 184 188 185 181 188 194 194 196 199 200 201 197 192 191 189 181 178 180 181 185 192 193 194 200 201 199 198 195 191 190 194 201 202 200 201 200 198 196 197 199 201 201 198 200 201 199 205 214 215 215 219 221 224 228 227 224 220 215 213 215 215 217 221 225 230 233 237 242 245 247 250 252 252 251 249 241 238 243 244 237 235 237 244 258 270 273 271
180 180 186 187 186 190 192 193 197 199 198 198 195 190 188 186 182 181 181 180 185 195 198 195 199 204 206 204 200 195 192 195 200 203 203 203 202 198 192 189 192 198 199 199 202 205 206 212 216 214 215 217 219 227 230 226 224 222 220 220 220 219 221 224 226 229 234 239 244 249 253 251 250 251 248 241 237 243 250 252 250 253 259 265 272 275 270 267
182 182 182 183 188 191 190 193 198 198 197 197 195 190 190 191 188 184 183 183 186 193 200 204 203 203 204 205 204 203 203 205 205 205 205 202 200 198 194 191 191 191 193 199 202 203 207 213 215 213 212 214 217 223 227 227 228 229 229 229 228 227 226 227 229 231 235 241 244 250 256 254 251 250 249 247 247 250 254 256 259 261 264 267 271 271 270 269
186 188 186 183 185 189 189 191 196 195 193 196 197 193 193 197 197 192 188 191 195 196 199 205 205 200 201 205 209 213 215 214 212 210 208 205 203 200 197 195 193 187 187 196 201 203 206 211 215 212 209 211 216 217 221 228 233 239 240 236 232 231 230 231 233 234 235 239 243 249 252 253 251 249 248 248 249 252 256 259 261 264 267 270 272 271 270 267
187 188 189 186 185 187 189 189 192 192 192 195 198 198 199 202 202 198 191 190 197 200 201 203 203 200 200 205 211 215 215 214 214 214 212 212 211 206 203 204 203 196 191 194 199 204 207 209 211 207 205 210 214 214 219 223 225 236 239 236 232 232 235 239 239 238 239 241 244 246 247 249 253 250 246 246 246 250 256 259 263 269 271 272 271 268 264 258
Height
2994 2998 3003 3008 3014 3018 3021 3026 3031 3035 3040 3045 3049 3053 3057 3060 3064 3068 3072 3077 3081 3086 3090 3094 3098 3101 3103 3106 3109 3111 3112 3114 3115 3117 3120 3124 3126 3128 3131 3134 3137 3139 3142 3144 3147 3150 3152 3153 3155 3158 3161 3162 3165 3168 3169 3170 3172 3172 3173 3173 3174 3175 3176 3178 3180 3180 3181 3181 3181 3181 3181 3181 3182 3182 3182 3183 3183 3184 3184 3185 3185 3187 3188 3188 3188 3188 3188 3189
2989 2994 2998 3003 3009 3014 3018 3022 3027 3032 3036 3041 3045 3048 3052 3057 3062 3065 3069 3074 3079 3083 3087 3091 3095 3098 3101 3104 3107 3109 3111 3112 3113 3114 3119 3123 3125 3127 3129 3132 3135 3138 3141 3143 3146 3149 3151 3152 3155 3158 3160 3162 3165 3168 3168 3169 3170 3171 3172 3172 3174 3175 3176 3178 3179 3180 3180 3180 3181 3181 3181 3181 3181 3182 3182 3182 3183 3183 3184 3185 3185 3186 3188 3189 3189 3188 3189 3190
2987 2990 2994 2999 3005 3010 3014 3019 3024 3028 3032 3037 3042 3045 3049 3054 3059 3063 3067 3071 3076 3081 3085 3088 3092 3096 3099 3102 3105 3107 3109 3110 3110 3112 3117 3120 3122 3126 3128 3131 3134 3137 3140 3142 3144 3147 3149 3151 3154 3157 3159 3161 3164 3166 3167 3167 3169 3169 3170 3171 3173 3175 3176 3177 3178 3179 3180 3180 3180 3180 3180 3180 3180 3181 3181 3182 3182 3183 3184 3185 3186 3187 3188 3189 3189 3189 3189 3190
2984 2987 2990 2995 3000 3006 3010 3015 3020 3024 3029 3034 3039 3043 3047 3052 3056 3060 3064 3068 3073 3079 3082 3086 3090 3094 3097 3100 3103 3105 3108 3108 3106 3111 3116 3119 3121 3125 3128 3130 3133 3136 3139 3141 3142 3145 3148 3151 3154 3157 3158 3160 3162 3165 3165 3166 3167 3168 3169 3171 3173 3174 3175 3176 3177 3178 3178 3179 3179 3179 3179 3179 3180 3180 3180 3181 3182 3182 3184 3185 3186 3186 3187 3188 3189 3189 3189 3190
2981 2984 2987 2991 2996 3002 3007 3011 3016 3022 3027 3032 3036 3041 3045 3049 3053 3058 3062 3065 3070 3076 3080 3083 3087 3092 3095 3098 3101 3103 3106 3104 3103 3111 3115 3117 3121 3123 3126 3129 3131 3134 3137 3139 3141 3143 3147 3151 3154 3156 3158 3159 3161 3164 3163 3163 3165 3166 3168 3170 3171 3172 3174 3175 3176 3176 3177 3177 3178 3178 3179 3179 3179 3179 3179 3180 3181 3182 3183 3184 3185 3186 3187 3188 3188 3189 3189 3190
2978 2981 2986 2989 2992 2998 3003 3008 3012 3018 3024 3028 3032 3037 3043 3047 3050 3055 3059 3062 3067 3073 3077 3080 3085 3089 3092 3095 3099 3101 3102 3099 3102 3110 3113 3115 3120 3121 3124 3127 3130 3133 3135 3138 3140 3142 3145 3149 3152 3154 3156 3158 3160 3162 3162 3162 3164 3165 3167 3169 3170 3171 3172 3174 3174 3174 3175 3176 3177 3177 3177 3178 3178 3178 3179 3180 3181 3182 3182 3183 3184 3185 3186 3187 3187 3188 3189 3190
2975 2979 2983 2987 2989 2993 3000 3005 3008 3014 3020 3025 3029 3034 3040 3044 3048 3052 3056 3060 3064 3070 3074 3077 3082 3086 3090 3093 3096 3097 3098 3099 3103 3109 3111 3114 3118 3120 3123 3126 3128 3131 3133 3136 3139 3141 3144 3147 3149 3151 3154 3157 3158 3160 3161 3162 3163 3165 3166 3167 3168 3169 3170 3171 3172 3173 3174 3174 3175 3176 3176 3177 3177 3178 3178 3179 3180 3181 3182 3183 3183 3184 3186 3187 3188 3188 3188 3190
2972 2975 2980 2984 2985 2988 2996 3001 3004 3010 3016 3021 3026 3032 3038 3042 3045 3049 3054 3057 3061 3067 3071 3075 3078 3082 3087 3089 3091 3092 3092 3096 3101 3106 3109 3113 3116 3119 3121 3124 3126 3129 3131 3135 3137 3140 3143 3145 3147 3149 3152 3154 3156 3158 3159 3162 3164 3163 3164 3165 3165 3166 3167 3168 3169 3171 3172 3173 3173 3174 3174 3175 3177 3177 3177 3178 3180 3181 3181 3182 3183 3184 3185 3187 3188 3188 3188 3189
2969 2972 2975 2979 2982 2985 2991 2997 3001 3006 3012 3018 3024 3030 3036 3039 3042 3047 3051 3054 3059 3064 3069 3072 3075 3079 3084 3087 3089 3088 3089 3094 3100 3105 3108 3110 3114 3117 3120 3123 3125 3127 3130 3133 3136 3139 3141 3143 3145 3147 3150 3152 3155 3157 3158 3161 3162 3162 3163 3163 3163 3165 3165 3166 3167 3169 3170 3171 3172 3172 3173 3174 3175 3176 3176 3177 3179 3179 3180 3181 3182 3183 3185 3186 3187 3188 3188 3189
2966 2969 2972 2976 2979 2983 2988 2994 2999 3004 3009 3015 3021 3025 3030 3035 3039 3044 3048 3052 3057 3061 3066 3070 3072 3076 3080 3083 3085 3084 3089 3096 3100 3104 3107 3109 3113 3116 3119 3122 3124 3127 3129 3131 3134 3137 3139 3142 3144 3147 3149 3150 3153 3155 3156 3158 3159 3160 3161 3161 3162 3164 3164 3165 3166 3167 3168 3170 3170 3171 3172 3173 3174 3174 3175 3176 3177 3178 3179 3180 3182 3183 3184 3185 3186 3187 3188 3188
2964 2968 2970 2973 2977 2980 2986 2991 2997 3002 3006 3011 3018 3021 3025 3031 3036 3040 3045 3050 3054 3059 3064 3067 3070 3073 3077 3080 3081 3082 3089 3095 3098 3102 3105 3107 3111 3114 3118 3121 3123 3125 3127 3130 3133 3135 3138 3140 3143 3146 3148 3148 3150 3152 3154 3155 3157 3159 3159 3159 3161 3162 3162 3164 3165 3166 3167 3168 3169 3170 3170 3171 3172 3172 3174 3176 3176 3177 3178 3179 3181 3182 3184 3185 3186 3187 3188 3188
2962 2966 2969 2972 2975 2979 2984 2989 2994 2999 3003 3008 3014 3017 3021 3028 3032 3037 3043 3048 3052 3057 3061 3065 3068 3071 3075 3078 3080 3084 3090 3094 3097 3100 3102 3105 3109 3111 3115 3118 3121 3123 3126 3129 3131 3134 3137 3139 3142 3145 3146 3146 3149 3152 3152 3153 3156 3158 3158 3158 3159 3160 3160 3162 3163 3164 3166 3167 3168 3168 3168 3168 3169 3170 3173 3175 3175 3176 3177 3178 3179 3181 3182 3184 3184 3185 3187 3187
2960 2964 2968 2970 2972 2976 2981 2986 2991 2995 3000 3006 3011 3015 3019 3025 3029 3034 3040 3045 3049 3054 3058 3063 3066 3068 3072 3075 3078 3083 3088 3092 3096 3097 3099 3103 3106 3109 3112 3115 3118 3121 3124 3127 3130 3133 3135 3138 3141 3142 3143 3145 3148 3150 3149 3151 3154 3156 3157 3157 3157 3158 3158 3160 3162 3163 3165 3165 3166 3167 3165 3165 3167 3170 3173 3173 3174 3175 3176 3177 3178 3180 3181 3182 3183 3184 3185 3186
2958 2961 2965 2968 2970 2974 2978 2983 2988 2993 2999 3004 3009 3013 3017 3022 3026 3030 3037 3042 3047 3051 3056 3061 3063 3065 3069 3072 3076 3081 3085 3089 3093 3094 3096 3099 3103 3106 3108 3112 3115 3118 3121 3125 3128 3131 3133 3136 3139 3140 3141 3143 3146 3148 3149 3151 3153 3155 3156 3155 3155 3156 3156 3158 3161 3162 3164 3164 3164 3165 3163 3163 3167 3171 3172 3172 3173 3174 3175 3176 3177 3178 3180 3181 3182 3183 3184 3185
2955 2959 2963 2966 2968 2972 2976 2980 2985 2991 2996 3001 3006 3010 3014 3019 3024 3028 3034 3039 3044 3049 3053 3058 3060 3062 3065 3068 3073 3078 3082 3086 3089 3092 3095 3098 3101 3103 3105 3109 3112 3115 3119 3122 3125 3129 3131 3134 3136 3137 3139 3141 3144 3146 3148 3149 3152 3154 3154 3153 3154 3153 3154 3157 3159 3160 3162 3163 3163 3164 3162 3162 3166 3169 3170 3170 3171 3172 3173 3174 3176 3177 3178 3179 3180 3181 3183 3184
2953 2957 2961 2964 2967 2970 2975 2979 2983 2989 2994 2999 3004 3008 3012 3016 3021 3026 3030 3036 3042 3046 3050 3052 3055 3059 3062 3064 3069 3074 3077 3082 3086 3090 3094 3096 3099 3102 3104 3107 3111 3114 3117 3120 3124 3127 3129 3132 3133 3135 3137 3139 3141 3143 3146 3148 3149 3151 3151 3150 3151 3152 3153 3156 3157 3158 3160 3161 3161 3161 3161 3161 3165 3167 3167 3168 3169 3171 3172 3173 3174 3175 3176 3177 3178 3180 3181 3182
2951 2955 2959 2963 2966 2969 2974 2977 2981 2986 2991 2998 3002 3005 3010 3014 3019 3025 3029 3034 3038 3042 3046 3049 3053 3058 3060 3060 3064 3068 3073 3078 3083 3087 3090 3094 3097 3100 3103 3106 3109 3112 3115 3118 3121 3124 3126 3128 3130 3132 3134 3136 3138 3141 3144 3142 3141 3144 3146 3148 3150 3151 3152 3153 3155 3157 3159 3159 3159 3160 3159 3160 3164 3166 3166 3167 3168 3169 3170 3171 3172 3173 3174 3176 3177 3178 3179 3180
2949 2953 2958 2962 2965 2968 2972 2975 2979 2983 2988 2994 2999 3003 3007 3012 3018 3023 3027 3030 3034 3040 3045 3047 3051 3053 3051 3054 3059 3064 3071 3077 3081 3085 3088 3091 3095 3098 3102 3105 3108 3111 3114 3117 3119 3121 3123 3125 3127 3129 3130 3131 3133 3135 3136 3134 3135 3141 3145 3147 3149 3150 3151 3151 3154 3156 3157 3158 3158 3159 3158 3159 3162 3164 3165 3165 3166 3167 3168 3169 3170 3171 3173 3174 3174 3175 3176 3177
2947 2951 2955 2959 2963 2966 2970 2973 2977 2981 2986 2992 2996 3001 3006 3011 3015 3019 3023 3023 3025 3029 3030 3033 3038 3040 3042 3047 3055 3063 3071 3076 3078 3082 3085 3088 3092 3096 3100 3103 3106 3109 3111 3113 3116 3118 3120 3122 3124 3123 3124 3127 3130 3133 3133 3134 3139 3144 3146 3148 3147 3148 3149 3150 3153 3155 3156 3156 3156 3157 3156 3158 3161 3162 3163 3164 3164 3165 3166 3167 3168 3169 3170 3171 3172 3173 3174 3175
2945 2949 2953 2956 2960 2964 2967 2971 2974 2978 2984 2989 2992 2996 2999 3004 3007 3011 3015 3015 3017 3020 3021 3025 3031 3035 3040 3045 3051 3060 3067 3072 3075 3079 3082 3086 3090 3094 3097 3100 3103 3106 3109 3111 3113 3116 3118 3119 3118 3119 3123 3127 3131 3134 3135 3138 3142 3145 3146 3146 3146 3146 3146 3148 3152 3153 3154 3154 3154 3156 3156 3156 3158 3160 3161 3162 3162 3163 3164 3165 3166 3167 3168 3169 3170 3171 3172 3174
2942 2947 2950 2953 2958 2961 2964 2968 2972 2975 2980 2985 2988 2989 2992 2996 3000 3003 3008 3010 3016 3021 3023 3026 3031 3035 3039 3043 3049 3055 3059 3064 3071 3076 3079 3084 3088 3091 3094 3097 3100 3103 3105 3109 3112 3115 3116 3115 3116 3121 3125 3127 3130 3132 3135 3138 3143 3145 3145 3145 3145 3144 3145 3147 3150 3151 3152 3152 3152 3155 3154 3153 3155 3157 3159 3160 3160 3161 3163 3164 3164 3165 3166 3167 3168 3169 3171 3172
2940 2944 2948 2951 2954 2958 2962 2966 2970 2973 2977 2981 2982 2984 2988 2994 2999 3004 3006 3006 3012 3019 3022 3025 3029 3033 3039 3043 3050 3054 3056 3059 3066 3071 3075 3079 3083 3087 3090 3094 3097 3100 3103 3107 3109 3112 3112 3112 3116 3122 3124 3127 3130 3132 3134 3138 3141 3143 3143 3143 3143 3143 3144 3146 3148 3149 3150 3150 3151 3153 3151 3150 3153 3155 3156 3157 3157 3159 3161 3162 3162 3163 3164 3165 3166 3168 3169 3170
2938 2942 2946 2949 2951 2956 2960 2963 2967 2970 2973 2976 2978 2981 2986 2992 2998 3004 3007 3007 3009 3013 3017 3021 3025 3030 3036 3040 3046 3052 3056 3058 3061 3066 3071 3075 3079 3083 3086 3091 3094 3098 3101 3104 3106 3108 3109 3111 3117 3120 3123 3126 3129 3130 3133 3136 3139 3140 3141 3141 3141 3143 3145 3145 3147 3148 3149 3149 3150 3151 3150 3148 3150 3151 3152 3154 3156 3157 3158 3159 3160 3161 3161 3163 3164 3165 3166 3167
2936 2940 2944 2947 2950 2953 2956 2960 2964 2965 2969 2973 2976 2981 2987 2991 2996 3001 3006 3007 3006 3008 3012 3017 3023 3027 3031 3036 3043 3049 3054 3059 3061 3064 3069 3073 3077 3082 3086 3090 3093 3096 3099 3102 3106 3108 3108 3112 3117 3119 3122 3125 3126 3127 3129 3132 3135 3136 3137 3138 3139 3142 3144 3144 3146 3148 3149 3149 3149 3151 3150 3144 3145 3147 3147 3152 3153 3153 3155 3156 3157 3158 3160 3161 3162 3163 3164 3165
2933 2938 2941 2945 2947 2950 2954 2956 2959 2963 2968 2971 2974 2980 2987 2990 2995 3000 3005 3006 3004 3007 3011 3015 3019 3024 3029 3035 3040 3045 3051 3057 3061 3064 3068 3072 3076 3080 3084 3089 3092 3095 3098 3102 3106 3107 3108 3112 3116 3118 3120 3122 3123 3124 3126 3128 3131 3133 3134 3136 3140 3142 3143 3144 3146 3147 3148 3147 3147 3151 3149 3140 3140 3143 3144 3148 3150 3149 3152 3153 3154 3156 3157 3158 3159 3161 3162 3163
2931 2935 2939 2942 2944 2947 2950 2952 2957 2965 2966 2967 2973 2980 2986 2989 2993 2999 3004 3004 3002 3003 3007 3010 3014 3019 3025 3031 3036 3043 3050 3053 3058 3064 3068 3072 3076 3079 3083 3087 3090 3093 3097 3102 3105 3105 3106 3109 3113 3115 3117 3119 3121 3122 3124 3127 3130 3132 3132 3136 3141 3143 3143 3144 3145 3146 3146 3145 3146 3149 3146 3139 3137 3139 3142 3145 3146 3146 3149 3149 3150 3153 3154 3156 3157 3159 3160 3161
2928 2932 2936 2939 2941 2944 2946 2950 2958 2962 2960 2965 2974 2979 2984 2988 2992 2998 3002 3001 2997 2998 3001 3004 3009 3015 3020 3027 3033 3040 3043 3047 3054 3062 3066 3070 3075 3078 3082 3084 3087 3091 3095 3099 3101 3101 3102 3106 3110 3111 3114 3116 3116 3118 3121 3125 3129 3130 3132 3138 3142 3143 3144 3144 3145 3145 3145 3145 3145 3145 3144 3141 3134 3132 3139 3142 3142 3143 3145 3146 3148 3150 3152 3153 3155 3156 3158 3159
2925 2930 2933 2936 2939 2942 2946 2950 2956 2957 2959 2967 2974 2977 2982 2986 2990 2996 2998 2994 2990 2991 2995 2999 3005 3013 3018 3025 3033 3037 3040 3043 3049 3055 3063 3069 3072 3075 3079 3082 3085 3088 3092 3095 3096 3097 3099 3103 3106 3108 3111 3112 3112 3115 3119 3123 3126 3128 3133 3138 3140 3142 3143 3144 3145 3144 3144 3145 3142 3140 3142 3139 3129 3126 3135 3139 3138 3139 3141 3144 3146 3148 3150 3151 3152 3154 3155 3157
2923 2927 2930 2935 2938 2940 2943 2947 2951 2955 2959 2966 2971 2975 2979 2984 2989 2992 2991 2987 2985 2986 2990 2996 3003 3009 3015 3021 3029 3035 3040 3043 3045 3051 3059 3064 3068 3072 3076 3080 3085 3088 3091 3093 3094 3096 3098 3102 3106 3107 3108 3108 3110 3115 3118 3120 3122 3126 3133 3137 3138 3140 3141 3143 3144 3143 3145 3143 3136 3135 3138 3136 3126 3124 3131 3133 3132 3135 3138 3142 3145 3146 3148 3148 3150 3151 3152 3154
2920 2924 2929 2933 2934 2935 2938 2942 2948 2953 2957 2962 2967 2971 2976 2981 2984 2984 2982 2979 2980 2983 2987 2992 2998 3003 3010 3017 3024 3032 3036 3040 3045 3050 3056 3061 3066 3071 3075 3079 3084 3087 3090 3092 3094 3095 3098 3101 3104 3105 3105 3107 3110 3115 3117 3120 3121 3125 3131 3133 3136 3138 3139 3142 3142 3143 3145 3137 3129 3132 3135 3134 3126 3120 3124 3128 3129 3134 3138 3141 3143 3144 3145 3146 3147 3149 3150 3151
2916 2921 2925 2928 2929 2932 2935 2939 2946 2952 2954 2959 2965 2968 2973 2977 2976 2975 2974 2974 2979 2983 2984 2988 2994 3000 3006 3011 3019 3027 3033 3038 3043 3046 3050 3057 3062 3066 3070 3074 3079 3085 3088 3089 3091 3093 3096 3099 3100 3100 3102 3105 3109 3112 3116 3118 3120 3124 3128 3131 3134 3137 3138 3140 3140 3143 3142 3130 3126 3130 3133 3134 3124 3114 3120 3126 3128 3133 3136 3137 3140 3142 3143 3144 3145 3146 3147 3148
2913 2917 2922 2924 2927 2930 2931 2938 2947 2952 2954 2958 2962 2964 2966 2968 2968 2967 2968 2972 2976 2979 2980 2984 2989 2996 3004 3010 3015 3021 3027 3034 3039 3043 3046 3051 3055 3058 3061 3064 3068 3075 3081 3084 3087 3090 3092 3094 3096 3098 3100 3103 3106 3109 3113 3115 3117 3122 3125 3128 3133 3135 3138 3139 3137 3138 3134 3126 3125 3128 3130 3129 3116 3112 3120 3124 3126 3131 3133 3135 3138 3139 3140 3141 3142 3142 3143 3145
2908 2913 2917 2919 2923 2925 2928 2937 2946 2949 2952 2955 2958 2960 2960 2959 2958 2959 2964 2969 2972 2976 2980 2983 2987 2992 2999 3006 3012 3018 3026 3031 3035 3041 3046 3049 3053 3056 3059 3063 3065 3068 3072 3078 3083 3087 3091 3094 3094 3096 3097 3098 3101 3103 3106 3109 3112 3118 3121 3125 3129 3131 3135 3135 3132 3131 3128 3124 3125 3127 3130 3123 3111 3112 3118 3121 3125 3129 3130 3133 3135 3136 3138 3138 3139 3140 3140 3142
2904 2908 2911 2914 2918 2921 2926 2935 2941 2944 2948 2951 2954 2955 2953 2951 2951 2954 2960 2966 2970 2976 2980 2982 2987 2994 2999 3004 3009 3015 3023 3031 3035 3039 3044 3048 3052 3054 3057 3061 3065 3066 3068 3074 3079 3081 3086 3089 3088 3089 3091 3093 3096 3099 3102 3105 3109 3114 3119 3124 3126 3126 3127 3128 3127 3126 3123 3123 3124 3127 3126 3117 3109 3113 3115 3117 3123 3126 3128 3131 3132 3134 3135 3136 3137 3137 3138 3139
2899 2901 2905 2909 2912 2915 2923 2931 2936 2941 2944 2948 2951 2947 2944 2946 2948 2950 2956 2963 2968 2974 2980 2984 2986 2992 2999 3005 3010 3013 3018 3025 3033 3038 3042 3044 3046 3048 3051 3054 3058 3062 3064 3069 3073 3076 3080 3083 3083 3085 3089 3091 3094 3098 3102 3105 3109 3113 3118 3122 3122 3121 3122 3125 3125 3123 3123 3123 3122 3122 3118 3110 3109 3113 3114 3116 3119 3121 3125 3128 3129 3131 3132 3133 3134 3134 3135 3136
2892 2895 2899 2901 2904 2910 2919 2926 2932 2937 2941 2945 2946 2941 2939 2944 2946 2947 2953 2960 2964 2968 2976 2984 2986 2988 2996 3003 3009 3014 3018 3022 3029 3036 3040 3043 3045 3046 3048 3050 3053 3057 3059 3063 3068 3072 3077 3080 3081 3084 3087 3090 3093 3097 3100 3104 3107 3111 3114 3115 3114 3118 3123 3125 3124 3123 3124 3122 3117 3115 3112 3109 3110 3111 3112 3116 3117 3119 3123 3124 3126 3128 3129 3130 3131 3132 3133 3133
2884 2888 2891 2893 2899 2908 2916 2922 2928 2933 2938 2941 2939 2936 2938 2943 2945 2947 2951 2956 2962 2965 2968 2975 2980 2984 2990 2999 3005 3010 3015 3021 3028 3032 3036 3042 3043 3043 3045 3048 3051 3053 3056 3060 3064 3068 3073 3078 3081 3083 3086 3088 3092 3096 3100 3102 3105 3108 3109 3109 3114 3121 3124 3125 3124 3123 3122 3119 3113 3109 3108 3109 3110 3109 3110 3114 3116 3117 3120 3121 3123 3125 3126 3127 3128 3130 3131 3130
2880 2884 2885 2888 2897 2906 2913 2919 2925 2930 2934 2936 2934 2933 2936 2939 2944 2948 2951 2954 2960 2965 2967 2970 2975 2979 2982 2988 2995 3001 3006 3013 3020 3025 3030 3035 3036 3036 3039 3043 3046 3050 3054 3058 3062 3065 3069 3075 3080 3082 3085 3088 3091 3095 3098 3100 3103 3105 3107 3109 3114 3118 3118 3119 3121 3119 3118 3116 3110 3106 3106 3106 3106 3106 3108 3112 3114 3116 3118 3120 3121 3122 3124 3125 3126 3127 3127 3127
2877 2879 2878 2884 2896 2904 2909 2916 2923 2927 2930 2929 2928 2930 2932 2935 2941 2947 2951 2954 2957 2962 2966 2968 2972 2979 2982 2983 2987 2993 2999 3003 3008 3015 3020 3023 3026 3028 3032 3035 3040 3045 3050 3054 3058 3062 3066 3072 3078 3081 3084 3087 3089 3091 3091 3093 3098 3103 3106 3108 3111 3112 3113 3114 3115 3113 3113 3112 3108 3105 3104 3101 3101 3104 3108 3110 3112 3114 3116 3118 3119 3120 3122 3122 3123 3123 3123 3124
2871 2873 2874 2883 2893 2899 2906 2916 2920 2922 2923 2923 2925 2929 2932 2934 2939 2945 2951 2954 2956 2960 2964 2966 2969 2974 2981 2986 2990 2994 2999 3002 3005 3008 3012 3015 3019 3023 3028 3032 3035 3040 3046 3053 3057 3060 3064 3068 3073 3079 3083 3085 3085 3084 3084 3087 3092 3096 3100 3103 3105 3107 3110 3111 3111 3111 3110 3109 3106 3104 3101 3098 3099 3103 3106 3108 3110 3113 3114 3115 3117 3118 3118 3119 3119 3119 3119 3120
2867 2869 2870 2879 2889 2894 2903 2911 2913 2915 2919 2922 2924 2929 2932 2934 2936 2943 2950 2953 2956 2960 2963 2966 2969 2972 2976 2982 2988 2992 2999 3004 3006 3009 3012 3014 3016 3019 3023 3027 3031 3036 3043 3049 3053 3056 3060 3064 3069 3074 3077 3079 3081 3082 3085 3089 3090 3092 3095 3098 3100 3104 3107 3109 3108 3106 3106 3106 3104 3102 3098 3095 3098 3101 3103 3106 3108 3110 3112 3112 3113 3115 3115 3115 3115 3115 3115 3116
2861 2862 2866 2875 2883 2888 2897 2904 2907 2912 2918 2919 2921 2926 2931 2933 2935 2941 2947 2952 2957 2960 2964 2967 2970 2974 2976 2978 2981 2987 2992 2997 3002 3005 3008 3010 3013 3016 3020 3025 3031 3036 3040 3045 3049 3054 3058 3062 3067 3071 3074 3078 3081 3084 3086 3089 3091 3094 3096 3096 3099 3102 3104 3105 3103 3102 3104 3103 3102 3102 3097 3092 3096 3100 3101 3103 3105 3106 3109 3110 3111 3112 3112 3112 3112 3112 3113 3113
2855 2859 2867 2875 2879 2884 2893 2899 2904 2910 2914 2916 2920 2924 2927 2930 2934 2938 2943 2950 2955 2959 2963 2967 2970 2973 2976 2978 2982 2986 2990 2994 2999 3001 3004 3008 3013 3017 3022 3026 3031 3037 3040 3043 3047 3052 3058 3062 3066 3071 3076 3080 3082 3084 3086 3088 3091 3092 3091 3093 3096 3098 3099 3102 3101 3101 3103 3100 3100 3102 3093 3086 3092 3098 3100 3102 3103 3103 3105 3107 3108 3109 3109 3109 3109 3110 3110 3111
2852 2859 2866 2872 2878 2882 2886 2890 2897 2904 2909 2913 2916 2919 2922 2926 2930 2934 2939 2945 2950 2954 2959 2963 2967 2970 2974 2977 2980 2983 2988 2993 2998 3001 3004 3007 3012 3018 3023 3026 3030 3034 3037 3039 3042 3047 3053 3058 3062 3069 3077 3082 3084 3085 3084 3083 3083 3083 3085 3088 3091 3094 3097 3100 3100 3101 3100 3095 3097 3097 3088 3083 3090 3095 3098 3101 3102 3102 3103 3104 3105 3106 3107 3107 3107 3107 3108 3109
2849 2856 2862 2869 2875 2879 2882 2887 2894 2901 2905 2908 2912 2916 2921 2925 2929 2933 2937 2942 2947 2951 2956 2960 2964 2969 2973 2977 2981 2985 2987 2990 2993 2998 3002 3007 3012 3017 3022 3026 3029 3032 3035 3039 3043 3046 3051 3055 3056 3060 3067 3071 3072 3071 3067 3067 3072 3077 3081 3085 3088 3092 3095 3096 3097 3098 3094 3090 3092 3090 3083 3083 3089 3092 3095 3099 3100 3101 3103 3103 3103 3103 3104 3104 3104 3104 3105 3106
2841 2848 2855 2863 2871 2877 2881 2888 2893 2896 2898 2902 2909 2915 2919 2923 2928 2933 2937 2941 2945 2950 2955 2959 2963 2969 2973 2977 2982 2986 2989 2990 2992 2995 3000 3004 3009 3014 3019 3024 3028 3032 3036 3040 3045 3048 3051 3054 3054 3054 3054 3055 3055 3054 3055 3060 3067 3071 3074 3079 3084 3088 3091 3094 3095 3092 3087 3088 3088 3084 3083 3085 3088 3090 3093 3096 3098 3100 3101 3101 3101 3101 3101 3101 3101 3102 3102 3103
2836 2841 2844 2851 2862 2871 2876 2883 2888 2891 2893 2898 2904 2909 2914 2920 2925 2931 2935 2940 2945 2949 2955 2959 2962 2966 2969 2972 2977 2982 2986 2990 2992 2994 2998 3002 3007 3013 3018 3023 3028 3031 3035 3040 3044 3047 3050 3051 3052 3052 3052 3052 3053 3054 3057 3060 3063 3065 3069 3074 3078 3083 3086 3090 3088 3084 3085 3087 3081 3078 3083 3085 3084 3088 3092 3094 3097 3098 3098 3099 3099 3099 3099 3099 3099 3100 3100 3101
2831 2836 2842 2847 2854 2861 2869 2877 2884 2889 2893 2898 2902 2905 2909 2915 2920 2925 2931 2938 2945 2949 2952 2957 2961 2962 2964 2967 2971 2976 2982 2987 2990 2992 2996 2999 3004 3010 3016 3022 3027 3030 3034 3039 3043 3045 3047 3047 3047 3049 3052 3054 3055 3055 3057 3060 3062 3065 3069 3071 3075 3079 3081 3082 3080 3079 3082 3081 3073 3076 3083 3080 3080 3087 3090 3093 3096 3095 3095 3097 3097 3097 3097 3097 3097 3098 3099 3100
2826 2833 2841 2850 2854 2859 2868 2878 2884 2888 2893 2897 2902 2904 2906 2911 2917 2922 2927 2934 2941 2946 2948 2950 2953 2957 2962 2966 2969 2972 2976 2979 2981 2984 2987 2991 2997 3002 3007 3013 3018 3023 3028 3033 3037 3041 3044 3043 3044 3048 3050 3053 3055 3056 3057 3060 3063 3066 3068 3069 3072 3075 3076 3077 3075 3076 3080 3076 3072 3078 3080 3074 3077 3085 3088 3090 3093 3092 3092 3093 3094 3095 3095 3095 3096 3096 3097 3098
2825 2829 2836 2847 2856 2860 2868 2876 2881 2887 2892 2896 2900 2904 2907 2910 2915 2920 2924 2928 2933 2940 2944 2945 2947 2952 2958 2963 2965 2965 2965 2964 2966 2970 2975 2981 2988 2994 2997 2999 3003 3011 3020 3026 3031 3036 3039 3040 3043 3047 3050 3052 3054 3055 3057 3060 3062 3065 3067 3069 3070 3070 3071 3070 3069 3074 3077 3072 3071 3077 3074 3067 3073 3082 3084 3086 3088 3088 3088 3089 3090 3092 3092 3093 3093 3094 3094 3095
2827 2832 2837 2845 2854 2859 2865 2871 2877 2883 2889 2893 2897 2901 2906 2909 2913 2918 2924 2927 2930 2934 2938 2941 2946 2953 2959 2962 2962 2961 2963 2966 2971 2974 2978 2983 2987 2991 2994 2997 3001 3007 3016 3023 3029 3033 3036 3039 3042 3046 3049 3050 3052 3055 3058 3059 3062 3065 3064 3062 3062 3063 3064 3064 3066 3071 3071 3067 3071 3074 3066 3061 3069 3079 3082 3082 3083 3084 3084 3085 3087 3089 3090 3090 3091 3091 3092 3092
2828 2834 2839 2843 2848 2856 2862 2869 2875 2880 2883 2888 2894 2899 2904 2908 2913 2918 2922 2927 2932 2935 2938 2943 2949 2953 2957 2958 2958 2961 2967 2974 2979 2983 2988 2992 2995 2998 3001 3004 3007 3010 3014 3021 3027 3032 3036 3038 3041 3045 3048 3049 3052 3056 3057 3060 3064 3060 3052 3050 3055 3058 3061 3063 3063 3064 3065 3067 3069 3065 3057 3059 3070 3078 3079 3078 3079 3080 3080 3082 3084 3085 3086 3087 3087 3087 3088 3089